When you browse on this site, cookies collect data to enhance your experience and personalize the content and advertising you see.
Visit our Privacy Policy to learn more. By continuing to use the site, you agree to this use of cookies and data.
  • Em Portugal
  • Lista de países
  • Para 7 dias
  • Temperatura da água
  • Mapas de satélite
  • Mapa do tempo
  • Widgets de tempo
  • user-avatar
    Iniciar Sessão

    Previsão horária em Cork

    Hoje, 22 Janeiro, Terça-feira

    Tempo Temperatura Precipitação Vento Pressão Humidade
    00:00 0°C° 0 mm 4 m/s 755 mmHg 82%
    01:00 +1°C° 0 mm 4 m/s 754 mmHg 81%
    02:00 +1°C° 0 mm 4 m/s 754 mmHg 81%
    03:00 +1°C° 0.1 mm 4 m/s 753 mmHg 83%
    04:00 +1°C° 0.1 mm 4 m/s 753 mmHg 84%
    05:00 +3°C° 0 mm 4 m/s 752 mmHg 88%
    06:00 +3°C° 0.3 mm 4 m/s 752 mmHg 87%
    07:00 +2°C° 0.3 mm 5 m/s 752 mmHg 87%
    08:00 +2°C° 0.3 mm 5 m/s 752 mmHg 87%
    09:00 +2°C° 0.2 mm 5 m/s 752 mmHg 85%
    10:00 +3°C° 0.2 mm 6 m/s 752 mmHg 83%
    11:00 +5°C° 0 mm 4 m/s 751 mmHg 83%
    12:00 +5°C° 0.1 mm 4 m/s 750 mmHg 84%
    13:00 +5°C° 0.1 mm 4 m/s 750 mmHg 85%
    14:00 +5°C° 0.1 mm 4 m/s 750 mmHg 85%
    15:00 +5°C° 0.1 mm 3 m/s 749 mmHg 88%
    16:00 +4°C° 0.1 mm 3 m/s 749 mmHg 90%
    17:00 +4°C° 0.1 mm 3 m/s 749 mmHg 93%
    18:00 +4°C° 0.1 mm 3 m/s 749 mmHg 93%
    19:00 +4°C° 0.1 mm 3 m/s 749 mmHg 93%
    20:00 +4°C° 0.1 mm 3 m/s 749 mmHg 93%
    21:00 +4°C° 0 mm 4 m/s 749 mmHg 93%
    22:00 +4°C° 0 mm 4 m/s 750 mmHg 93%
    23:00 +3°C° 0 mm 4 m/s 750 mmHg 93%

    Amanhã, 23 Janeiro, Quarta-feira

    Tempo Temperatura Precipitação Vento Pressão Humidade
    00:00 +3°C° 0 mm 3 m/s 750 mmHg 93%
    01:00 +3°C° 0 mm 3 m/s 751 mmHg 92%
    02:00 +2°C° 0 mm 3 m/s 751 mmHg 92%
    03:00 +2°C° 0 mm 3 m/s 751 mmHg 92%
    04:00 +3°C° 0 mm 3 m/s 751 mmHg 91%
    05:00 +3°C° 0 mm 3 m/s 752 mmHg 90%
    06:00 +3°C° 0 mm 3 m/s 752 mmHg 91%
    07:00 +4°C° 0 mm 2 m/s 752 mmHg 91%
    08:00 +4°C° 0 mm 2 m/s 753 mmHg 92%
    09:00 +5°C° 0.1 mm 2 m/s 753 mmHg 91%
    10:00 +6°C° 0.1 mm 2 m/s 753 mmHg 91%
    11:00 +7°C° 0.1 mm 1 m/s 753 mmHg 91%
    12:00 +6°C° 0.5 mm 2 m/s 753 mmHg 92%
    13:00 +6°C° 0.5 mm 2 m/s 753 mmHg 93%
    14:00 +6°C° 0.5 mm 2 m/s 753 mmHg 95%
    15:00 +7°C° 0.3 mm 2 m/s 753 mmHg 95%
    16:00 +7°C° 0.3 mm 2 m/s 753 mmHg 96%
    17:00 +8°C° 0.3 mm 2 m/s 753 mmHg 96%
    18:00 +8°C° 0.1 mm 3 m/s 753 mmHg 96%
    19:00 +9°C° 0.1 mm 3 m/s 753 mmHg 95%
    20:00 +8°C° 0.1 mm 4 m/s 754 mmHg 95%
    21:00 +8°C° 0.1 mm 4 m/s 754 mmHg 95%
    22:00 +8°C° 0.1 mm 4 m/s 754 mmHg 95%
    23:00 +10°C° 0.1 mm 4 m/s 755 mmHg 95%

    Depois de amanhã, 24 Janeiro, Quinta-feira

    Tempo Temperatura Precipitação Vento Pressão Humidade
    00:00 +10°C° 0 mm 4 m/s 755 mmHg 94%
    01:00 +8°C° 0 mm 4 m/s 755 mmHg 94%
    02:00 +8°C° 0 mm 4 m/s 756 mmHg 94%
    03:00 +8°C° 0 mm 4 m/s 756 mmHg 94%
    04:00 +7°C° 0 mm 4 m/s 756 mmHg 94%
    05:00 +7°C° 0 mm 4 m/s 757 mmHg 95%
    06:00 +7°C° 0 mm 4 m/s 757 mmHg 95%
    07:00 +8°C° 0 mm 4 m/s 757 mmHg 95%
    08:00 +9°C° 0 mm 3 m/s 758 mmHg 95%
    09:00 +10°C° 0.1 mm 4 m/s 758 mmHg 92%
    10:00 +9°C° 0.1 mm 5 m/s 758 mmHg 90%
    11:00 +10°C° 0.1 mm 6 m/s 759 mmHg 88%
    12:00 +9°C° 0 mm 6 m/s 759 mmHg 86%
    13:00 +9°C° 0 mm 6 m/s 759 mmHg 84%
    14:00 +9°C° 0 mm 5 m/s 759 mmHg 81%
    15:00 +8°C° 0 mm 5 m/s 759 mmHg 85%
    16:00 +8°C° 0 mm 5 m/s 759 mmHg 88%
    17:00 +7°C° 0 mm 5 m/s 760 mmHg 91%
    18:00 +7°C° 0 mm 5 m/s 760 mmHg 92%
    19:00 +7°C° 0 mm 5 m/s 760 mmHg 92%
    20:00 +8°C° 0 mm 5 m/s 761 mmHg 93%
    21:00 +8°C° 0 mm 5 m/s 761 mmHg 93%
    22:00 +8°C° 0 mm 5 m/s 761 mmHg 93%
    23:00 +8°C° 0 mm 5 m/s 761 mmHg 93%

    25 Janeiro, Sexta-feira

    Tempo Temperatura Precipitação Vento Pressão Humidade
    00:00 +8°C° 0 mm 5 m/s 761 mmHg 93%
    01:00 +8°C° 0 mm 5 m/s 762 mmHg 94%
    02:00 +8°C° 0 mm 5 m/s 762 mmHg 94%
    03:00 +7°C° 0 mm 4 m/s 762 mmHg 94%
    04:00 +7°C° 0 mm 4 m/s 762 mmHg 94%
    05:00 +6°C° 0 mm 4 m/s 762 mmHg 94%
    06:00 +6°C° 0 mm 4 m/s 762 mmHg 93%
    07:00 +6°C° 0 mm 4 m/s 763 mmHg 92%
    08:00 +7°C° 0 mm 3 m/s 763 mmHg 91%
    09:00 +7°C° 0 mm 4 m/s 763 mmHg 86%
    10:00 +8°C° 0 mm 4 m/s 764 mmHg 82%
    11:00 +11°C° 0 mm 4 m/s 764 mmHg 77%
    12:00 +11°C° 0 mm 4 m/s 764 mmHg 77%
    13:00 +11°C° 0 mm 3 m/s 764 mmHg 77%
    14:00 +11°C° 0 mm 3 m/s 764 mmHg 77%
    15:00 +9°C° 0 mm 3 m/s 763 mmHg 82%
    16:00 +8°C° 0 mm 3 m/s 763 mmHg 87%
    17:00 +7°C° 0 mm 3 m/s 763 mmHg 92%
    18:00 +7°C° 0 mm 3 m/s 763 mmHg 93%
    19:00 +7°C° 0 mm 3 m/s 763 mmHg 93%
    20:00 +7°C° 0 mm 3 m/s 763 mmHg 94%
    21:00 +7°C° 0 mm 3 m/s 762 mmHg 95%
    22:00 +7°C° 0 mm 4 m/s 762 mmHg 95%
    23:00 +8°C° 0 mm 5 m/s 761 mmHg 95%

    26 Janeiro, Sábado

    Tempo Temperatura Precipitação Vento Pressão Humidade
    00:00 +8°C° 0 mm 5 m/s 760 mmHg 93%
    01:00 +8°C° 0 mm 6 m/s 759 mmHg 91%
    02:00 +9°C° 0 mm 6 m/s 758 mmHg 89%
    03:00 +9°C° 0.4 mm 8 m/s 757 mmHg 90%
    04:00 +8°C° 0.4 mm 9 m/s 756 mmHg 90%
    05:00 +7°C° 0.4 mm 10 m/s 754 mmHg 91%
    06:00 +7°C° 0.1 mm 10 m/s 754 mmHg 87%
    07:00 +7°C° 0.1 mm 11 m/s 754 mmHg 84%
    08:00 +6°C° 0.1 mm 11 m/s 753 mmHg 81%
    09:00 +6°C° 0 mm 11 m/s 754 mmHg 78%
    10:00 +5°C° 0 mm 12 m/s 756 mmHg 74%
    11:00 +5°C° 0 mm 12 m/s 757 mmHg 71%
    12:00 +5°C° 0 mm 12 m/s 757 mmHg 70%
    13:00 +4°C° 0 mm 11 m/s 758 mmHg 68%
    14:00 +4°C° 0 mm 11 m/s 759 mmHg 66%
    15:00 +3°C° 0 mm 9 m/s 759 mmHg 69%
    16:00 +4°C° 0 mm 8 m/s 760 mmHg 71%
    17:00 +3°C° 0 mm 6 m/s 760 mmHg 74%
    18:00 +3°C° 0 mm 6 m/s 761 mmHg 74%
    19:00 +3°C° 0 mm 6 m/s 761 mmHg 75%
    20:00 +3°C° 0 mm 5 m/s 761 mmHg 76%
    21:00 +3°C° 0 mm 5 m/s 762 mmHg 77%
    22:00 +2°C° 0 mm 5 m/s 762 mmHg 78%
    23:00 +2°C° 0 mm 5 m/s 762 mmHg 78%

    27 Janeiro, Domingo

    Tempo Temperatura Precipitação Vento Pressão Humidade
    00:00 +2°C° 0 mm 5 m/s 762 mmHg 78%
    01:00 +3°C° 0 mm 5 m/s 762 mmHg 77%
    02:00 +3°C° 0 mm 5 m/s 762 mmHg 77%
    03:00 +4°C° 0 mm 4 m/s 762 mmHg 80%
    04:00 +3°C° 0 mm 4 m/s 762 mmHg 83%
    05:00 +3°C° 0 mm 4 m/s 762 mmHg 86%
    06:00 +3°C° 0 mm 3 m/s 762 mmHg 88%
    07:00 +3°C° 0 mm 3 m/s 762 mmHg 90%
    08:00 +4°C° 0 mm 2 m/s 762 mmHg 92%
    09:00 +5°C° 0.1 mm 2 m/s 762 mmHg 90%
    10:00 +7°C° 0.1 mm 1 m/s 762 mmHg 88%
    11:00 +8°C° 0.1 mm 1 m/s 762 mmHg 86%
    12:00 +8°C° 0.3 mm 1 m/s 762 mmHg 88%
    13:00 +8°C° 0.3 mm 1 m/s 762 mmHg 90%
    14:00 +8°C° 0.3 mm 1 m/s 761 mmHg 92%
    15:00 +7°C° 0 mm 1 m/s 762 mmHg 92%
    16:00 +7°C° 0 mm 1 m/s 762 mmHg 93%
    17:00 +5°C° 0 mm 2 m/s 762 mmHg 93%
    18:00 +4°C° 0 mm 2 m/s 763 mmHg 94%
    19:00 +4°C° 0 mm 2 m/s 764 mmHg 94%
    20:00 +3°C° 0 mm 2 m/s 764 mmHg 95%
    21:00 +3°C° 0 mm 2 m/s 765 mmHg 95%
    22:00 +2°C° 0 mm 2 m/s 765 mmHg 95%
    23:00 +2°C° 0 mm 2 m/s 765 mmHg 94%
    Mostrar mais